sat.trackr.live / text

‹ back to catalog

STARLINK-4510

NORAD 53405 · 2022-097T

PAYLOAD ACTIVE UNKNOWN

§ Identity

Operator
Country
US
Launch date
2022-08-10
Launch site
AFETR
Launch vehicle
Mass (kg)
RCS (m²)

Purposes: comms

External: N2YO · Heavens-Above · Gunter

§ Orbital elements

Epoch: 2026-05-24T10:32:53.695104Z

Period
95.44 min
Inclination
53.2136°
Eccentricity
0.0001071
Mean motion
15.08835171 rev/d
Perigee alt
539.0 km
Apogee alt
540.5 km
Semi-major
6,917.9 km
B*
5.1165e-5
RAAN
144.0667°
Arg perigee
75.1497°
Mean anomaly
284.9614°
Rev number
20,995

§ Raw data

STARLINK-45101 53405U 22097T   26144.43951036  .00000526  00000+0  51165-4 0  99992 53405  53.2136 144.0667 0001071  75.1497 284.9614 15.08835171209957

JSON: /api/v1/satellites/53405 · /tle

For live sub-satellite position, see the globe view (requires WebGL).

§ Visibility from observer

Set your observer location to see the next 7 days of passes ≥ 10°. The values pass through the URL so the page stays shareable.

No JS? Fill the form by hand. The geolocation button needs JavaScript.